Location: Cerbedi�res
(48.2182°N, 1.4849°W)
Time: 03:32:47
(UTC+00:00)

COSMOS 2428 - Pass Details

Date: 03 March 2021
Orbit: 845 x 858 km, 70.9° (Epoch: 16 April)

Event Time Altitude Azimuth Distance (km) Brightness Sun altitude
Rises 19:17:04 0° 168° (SSE) 3,391 5.7 -14.7°
Reaches altitude 10° 19:19:53 10° 156° (SSE) 2,462 4.8 -15.2°
Maximum altitude 19:24:23 25° 103° (ESE) 1,642 3.6 -15.9°
Enters shadow 19:24:45 25° 96° (E) 1,650 3.6 -16.0°
